Sturgeon Bay, WI

7:13 AM CST on January 22, 2018 (GMT -0600)
Door County Cherryland

Weather History for KSUE - February, 2014

Change the Weather History Date:

Sunday, February 9, 2014

  Actual Average Record
Temperature  
Mean Temperature 12 °F -  
Max Temperature 19 °F 25 °F 46 °F (1991)
Min Temperature 6 °F 6 °F -29 °F (1933)
Degree Days  
Heating Degree Days 52    
Moisture  
Dew Point 2 °F    
Average Humidity 66    
Maximum Humidity 85    
Minimum Humidity 46    
Precipitation  
Precipitation 0.00 in - - ()
Sea Level Pressure  
Sea Level Pressure 30.09 in    
Wind  
Wind Speed 7 mph (NW)    
Max Wind Speed 15 mph    
Max Gust Speed -    
Visibility 10 miles    
Events      
Averages and records for this station are not official NWS values.
T = Trace of Precipitation, MM = Missing Value Source: NWS Daily Summary

Daily Weather History Graph

Daily Weather History Graph

Search for Another Location

Airport or City:

Trip Planner

Search our weather history database for the weather conditions in past years. The results will help you decide how hot, cold, wet, or windy it might be!

Date:

Astronomy

Feb. 09, 2014 Rise Set
Actual Time 6:58 AM CST 5:09 PM CST
Civil Twilight 6:28 AM CST 5:40 PM CST
Nautical Twilight 5:53 AM CST 6:14 PM CST
Astronomical Twilight 5:19 AM CST 6:48 PM CST
Moon 12:44 PM CST (2/9) 3:07 AM CST (2/9)
Length of Visible Light 11h 11m
Length of Day
10h 10m
Waxing Gibbous, 77% of the Moon is Illuminated
Feb 9
Waxing Gibbous
Feb 14
Full
Feb 22
Last Quarter
Mar 1
New
Mar 8
First Quarter

Hourly Weather History & Observations

Time (CST) Temp. Windchill Dew Point Humidity Pressure Visibility Wind Dir Wind Speed Gust Speed Precip Events Conditions
12:15 AM 10.4 °F 0.8 °F 3.2 °F 73% 30.08 in 10.0 mi West 5.8 mph - N/A   Overcast
12:35 AM 10.4 °F 0.8 °F 3.2 °F 73% 30.08 in 10.0 mi West 5.8 mph - N/A   Overcast
12:55 AM 10.4 °F 0.8 °F 3.2 °F 73% 30.08 in 10.0 mi West 5.8 mph - N/A   Overcast
1:15 AM 10.4 °F 0.8 °F 5.0 °F 79% 30.07 in 10.0 mi WSW 5.8 mph - N/A   Overcast
1:35 AM 10.4 °F 2.2 °F 3.2 °F 73% 30.08 in 10.0 mi West 4.6 mph - N/A   Overcast
1:55 AM 10.4 °F 2.2 °F 5.0 °F 79% 30.07 in 10.0 mi West 4.6 mph - N/A   Overcast
2:15 AM 10.4 °F 0.8 °F 3.2 °F 73% 30.06 in 10.0 mi West 5.8 mph - N/A   Overcast
2:35 AM 10.4 °F 0.8 °F 3.2 °F 73% 30.06 in 10.0 mi West 5.8 mph - N/A   Overcast
2:55 AM 10.4 °F 2.2 °F 3.2 °F 73% 30.05 in 10.0 mi West 4.6 mph - N/A   Overcast
3:15 AM 10.4 °F 4.0 °F 3.2 °F 73% 30.06 in 10.0 mi West 3.5 mph - N/A   Overcast
3:35 AM 8.6 °F 2.0 °F 3.2 °F 79% 30.06 in 10.0 mi West 3.5 mph - N/A   Overcast
3:55 AM 8.6 °F 0.1 °F 3.2 °F 79% 30.06 in 10.0 mi West 4.6 mph - N/A   Overcast
4:15 AM 8.6 °F -2.6 °F 3.2 °F 79% 30.06 in 10.0 mi West 6.9 mph - N/A   Overcast
4:35 AM 8.6 °F 0.1 °F 3.2 °F 79% 30.06 in 10.0 mi West 4.6 mph - N/A   Overcast
4:55 AM 8.6 °F -2.6 °F 1.4 °F 73% 30.05 in 10.0 mi West 6.9 mph - N/A   Overcast
5:15 AM 8.6 °F -1.3 °F 3.2 °F 79% 30.05 in 10.0 mi West 5.8 mph - N/A   Overcast
5:35 AM 8.6 °F -2.6 °F 1.4 °F 73% 30.05 in 10.0 mi WNW 6.9 mph - N/A   Overcast
5:55 AM 8.6 °F -1.3 °F 1.4 °F 73% 30.06 in 10.0 mi WNW 5.8 mph - N/A   Overcast
6:15 AM 8.6 °F -2.6 °F 1.4 °F 73% 30.06 in 10.0 mi WNW 6.9 mph - N/A   Overcast
6:35 AM 8.6 °F -2.6 °F 1.4 °F 73% 30.06 in 10.0 mi NW 6.9 mph - N/A   Overcast
6:55 AM 6.8 °F -0.1 °F -0.4 °F 72% 30.05 in 10.0 mi NW 3.5 mph - N/A   Overcast
7:15 AM 6.8 °F -4.8 °F -0.4 °F 72% 30.06 in 10.0 mi NNW 6.9 mph - N/A   Overcast
7:35 AM 6.8 °F -7.8 °F -0.4 °F 72% 30.06 in 10.0 mi NNW 10.4 mph - N/A   Mostly Cloudy
7:55 AM 6.8 °F -5.9 °F -0.4 °F 72% 30.06 in 10.0 mi NNW 8.1 mph - N/A   Mostly Cloudy
8:15 AM 6.8 °F -4.8 °F -0.4 °F 72% 30.07 in 10.0 mi NW 6.9 mph - N/A   Mostly Cloudy
8:35 AM 6.8 °F -2.0 °F -0.4 °F 72% 30.07 in 10.0 mi WNW 4.6 mph - N/A   Mostly Cloudy
8:55 AM 6.8 °F -4.8 °F -0.4 °F 72% 30.07 in 10.0 mi NW 6.9 mph - N/A   Overcast
9:15 AM 8.6 °F -3.7 °F 1.4 °F 73% 30.07 in 10.0 mi NW 8.1 mph - N/A   Overcast
9:35 AM 10.4 °F -1.5 °F 1.4 °F 67% 30.08 in 10.0 mi NNW 8.1 mph - N/A   Overcast
9:55 AM 10.4 °F -3.3 °F 3.2 °F 73% 30.07 in 10.0 mi NW 10.4 mph - N/A   Overcast
10:15 AM 10.4 °F -2.4 °F 1.4 °F 67% 30.08 in 10.0 mi NW 9.2 mph - N/A   Overcast
10:35 AM 10.4 °F -1.5 °F 3.2 °F 73% 30.08 in 10.0 mi NNW 8.1 mph - N/A   Overcast
10:55 AM 12.2 °F -0.2 °F 3.2 °F 67% 30.08 in 10.0 mi NW 9.2 mph - N/A   Scattered Clouds
11:15 AM 12.2 °F 1.7 °F 3.2 °F 67% 30.07 in 10.0 mi NNW 6.9 mph - N/A   Clear
11:35 AM 12.2 °F 1.7 °F 3.2 °F 67% 30.08 in 10.0 mi NW 6.9 mph - N/A   Clear
11:55 AM 12.2 °F 2.9 °F 3.2 °F 67% 30.07 in 10.0 mi NW 5.8 mph - N/A   Clear
12:15 PM 15.8 °F 5.1 °F 3.2 °F 58% 30.06 in 10.0 mi WNW 8.1 mph - N/A   Clear
12:35 PM 15.8 °F 7.2 °F 3.2 °F 58% 30.06 in 10.0 mi WNW 5.8 mph - N/A   Clear
12:55 PM 15.8 °F 4.2 °F 3.2 °F 58% 30.06 in 10.0 mi WNW 9.2 mph - N/A   Clear
1:15 PM 17.6 °F 6.4 °F 3.2 °F 53% 30.05 in 10.0 mi WNW 9.2 mph - N/A   Clear
1:35 PM 17.6 °F 5.7 °F 3.2 °F 53% 30.05 in 10.0 mi NW 10.4 mph - N/A   Mostly Cloudy
1:55 PM 17.6 °F 7.3 °F 3.2 °F 53% 30.05 in 10.0 mi WNW 8.1 mph - N/A   Overcast
2:15 PM 17.6 °F 6.4 °F 3.2 °F 53% 30.05 in 10.0 mi West 9.2 mph - N/A   Overcast
2:35 PM 19.4 °F 9.5 °F 3.2 °F 49% 30.06 in 10.0 mi West 8.1 mph - N/A   Overcast
2:55 PM 19.4 °F 8.6 °F 3.2 °F 49% 30.06 in 10.0 mi WSW 9.2 mph - N/A   Overcast
3:15 PM 19.4 °F 9.5 °F 3.2 °F 49% 30.06 in 10.0 mi WNW 8.1 mph - N/A   Overcast
3:35 PM 19.4 °F 7.9 °F 1.4 °F 46% 30.06 in 10.0 mi WNW 10.4 mph - N/A   Overcast
3:55 PM 17.6 °F 10.7 °F 3.2 °F 53% 30.07 in 10.0 mi WNW 4.6 mph - N/A   Overcast
4:15 PM 17.6 °F 6.4 °F 3.2 °F 53% 30.08 in 10.0 mi WNW 9.2 mph - N/A   Overcast
4:35 PM 17.6 °F 8.2 °F 3.2 °F 53% 30.08 in 10.0 mi WNW 6.9 mph - N/A   Overcast
4:55 PM 17.6 °F 10.7 °F 3.2 °F 53% 30.09 in 10.0 mi WNW 4.6 mph - N/A   Overcast
5:15 PM 17.6 °F 12.3 °F 5.0 °F 58% 30.10 in 10.0 mi NW 3.5 mph - N/A   Overcast
5:35 PM 17.6 °F 12.3 °F 3.2 °F 53% 30.11 in 10.0 mi North 3.5 mph - N/A   Overcast
5:55 PM 15.8 °F 6.1 °F 3.2 °F 58% 30.12 in 10.0 mi North 6.9 mph - N/A   Overcast
6:15 PM 15.8 °F 10.2 °F 3.2 °F 58% 30.12 in 10.0 mi NNW 3.5 mph - N/A   Overcast
6:35 PM 15.8 °F 7.2 °F 3.2 °F 58% 30.13 in 10.0 mi NNW 5.8 mph - N/A   Mostly Cloudy
6:55 PM 15.8 °F 7.2 °F 3.2 °F 58% 30.13 in 10.0 mi NW 5.8 mph - N/A   Overcast
7:15 PM 15.8 °F 3.4 °F 1.4 °F 53% 30.13 in 10.0 mi North 10.4 mph - N/A   Overcast
7:35 PM 14.0 °F -0.2 °F 1.4 °F 57% 30.14 in 10.0 mi NNW 12.7 mph - N/A   Overcast
7:55 PM 14.0 °F 1.2 °F 1.4 °F 57% 30.15 in 10.0 mi NNW 10.4 mph - N/A   Overcast
8:15 PM 12.2 °F -1.0 °F 1.4 °F 62% 30.15 in 10.0 mi NNW 10.4 mph - N/A   Overcast
8:35 PM 12.2 °F -1.0 °F 1.4 °F 62% 30.16 in 10.0 mi NNW 10.4 mph - N/A   Overcast
8:55 PM 12.2 °F -1.8 °F -0.4 °F 57% 30.17 in 10.0 mi NNW 11.5 mph - N/A   Overcast
9:15 PM 10.4 °F -2.4 °F 3.2 °F 73% 30.17 in 10.0 mi North 9.2 mph - N/A   Overcast
9:35 PM 10.4 °F -1.5 °F 6.8 °F 85% 30.18 in 10.0 mi North 8.1 mph - N/A   Overcast
9:55 PM 10.4 °F -4.1 °F 3.2 °F 73% 30.19 in 10.0 mi North 11.5 mph - N/A   Overcast
10:15 PM 10.4 °F -3.3 °F 5.0 °F 79% 30.20 in 10.0 mi North 10.4 mph - N/A   Overcast
10:35 PM 10.4 °F -0.4 °F 6.8 °F 85% 30.20 in 10.0 mi NNW 6.9 mph - N/A   Overcast
10:55 PM 10.4 °F -2.4 °F 1.4 °F 67% 30.20 in 10.0 mi NNW 9.2 mph - N/A   Overcast
11:15 PM 10.4 °F -4.8 °F -0.4 °F 62% 30.20 in 10.0 mi NNW 12.7 mph - N/A   Overcast
11:35 PM 8.6 °F -8.3 °F -2.2 °F 62% 30.21 in 10.0 mi NNW 15.0 mph - N/A   Overcast
11:55 PM 8.6 °F -7.0 °F -0.4 °F 67% 30.22 in 10.0 mi NNW 12.7 mph - N/A   Overcast